Flag for Netherlands Weather past 2 weeks in Arnhem, Netherlands

Now
72 °F

Passing clouds.


Feels Like: 72 °F
Forecast: 61 / 76 °F
Wind: 7 mph from Southwest

Location: Deelen

Current Time: Jul 26, 2014 at 7:37:33 PM

Latest Report: Jul 26, 2014 at 6:55 PM


Visibility: N/A

Pressure: 29.92 "Hg

Humidity: 78%

Dew point: 64 °F

Location of ArnhemLocation

Historic Weather in Arnhem — Graph

°F

Arnhem temperature yesterday

Maximum temperature yesterday: 68 °F (at 9:25 AM)
Minimum temperature yesterday: 61 °F (at 7:25 AM)
Average temperature yesterday: 64 °F

Past Weeks' High & Low Weather Summary

 TemperatureHumidityPressure
High93 °F (Jul 19, 5:25 PM)100% (Jul 12, 12:25 AM)30.18 "Hg (Jul 12, 12:25 AM)
Low54 °F (Jul 16, 5:25 AM)26% (Jul 19, 2:25 PM)29.71 "Hg (Jul 13, 3:55 PM)
Average69 °F76%29.97 "Hg
* Reported Jul 11 6:25 PM — Jul 26 6:25 PM, Arnhem, Weather by CustomWeather, © 2014

Note: Actual official high and low records may vary slightly from our data, if they occured in-between our weather recording intervals... More about our weather records

Advertising

Arnhem weather history for previous 24 hours

 ConditionsComfort  
Time TempWeatherWind HumidityBarometerVisibility
6:25 PM
Jul 26
72 °FOvercast.7 mph83%29.92 "HgN/A
5:55 PM70 °FLight rain. Overcast.5 mph83%29.92 "HgN/A
5:25 PM68 °FOvercast.3 mph88%29.92 "HgN/A
4:55 PM68 °FOvercast.5 mph83%29.92 "HgN/A
4:25 PM68 °FOvercast.7 mph88%29.92 "HgN/A
3:55 PM70 °FLight rain. Broken clouds.9 mph88%29.92 "HgN/A
3:25 PM73 °FMore clouds than sun.5 mph69%29.92 "HgN/A
2:55 PM73 °FBroken clouds.7 mph74%29.92 "HgN/A
2:25 PM72 °FBroken clouds.8 mph78%29.92 "HgN/A
1:55 PM72 °FMostly cloudy.8 mph78%29.92 "HgN/A
1:25 PM72 °FMostly cloudy.9 mph73%29.92 "HgN/A
12:55 PM73 °FBroken clouds.7 mph69%29.92 "HgN/A
12:25 PM72 °FScattered clouds.6 mph73%29.92 "HgN/A
11:55 AM70 °FPartly sunny.6 mph78%29.92 "HgN/A
11:25 AM70 °FOvercast.5 mph83%29.92 "HgN/A
10:55 AM68 °FOvercast.5 mph88%29.92 "HgN/A
10:25 AM68 °FMostly cloudy.1 mph88%29.92 "HgN/A
9:55 AM68 °FBroken clouds.5 mph88%29.92 "HgN/A
9:25 AM66 °FFog.5 mph94%29.92 "Hg4 mi
8:55 AM64 °FFog.2 mph100%29.92 "Hg2 mi
8:25 AM63 °FFog.1 mph100%29.92 "Hg1 mi
7:55 AM63 °FLight rain. Broken clouds.2 mph100%29.92 "Hg1 mi
7:25 AM61 °FSprinkles. Mostly cloudy.2 mph100%29.92 "Hg1 mi
6:55 AM61 °FFog.1 mph100%29.92 "Hg1 mi
6:25 AM61 °FFog.5 mph100%29.92 "Hg1 mi
5:55 AM61 °FPassing clouds.1 mph100%29.92 "Hg2 mi
5:25 AM61 °FFog.2 mph100%29.92 "Hg2 mi
4:55 AM61 °FFog.2 mph100%29.92 "Hg3 mi
4:25 AM61 °FFog.2 mph100%29.92 "Hg2 mi
3:55 AM61 °FFog.2 mph100%29.92 "Hg2 mi
3:25 AM61 °FFog.No wind100%29.92 "Hg3 mi
2:55 AM61 °FFog.1 mph100%29.92 "Hg3 mi
2:25 AM63 °FFog.2 mph94%29.92 "Hg3 mi
1:55 AM61 °FFog.2 mph100%29.95 "Hg3 mi
1:25 AM63 °FFog.2 mph94%29.95 "Hg3 mi
12:55 AM63 °FFog.3 mph100%29.95 "Hg3 mi
12:25 AM63 °FFog.2 mph100%29.95 "Hg4 mi
11:55 PM
Jul 25
63 °FFog.2 mph94%29.95 "Hg4 mi
11:25 PM63 °FFog.2 mph94%29.95 "Hg5 mi
10:55 PM63 °FFog.3 mph94%29.95 "Hg6 mi
10:25 PM63 °FOvercast.3 mph94%29.95 "HgN/A
9:55 PM63 °FPassing clouds.3 mph94%29.95 "HgN/A
9:25 PM64 °FMore clouds than sun.5 mph88%29.95 "HgN/A
8:55 PM64 °FPartly sunny.6 mph88%29.95 "HgN/A
8:25 PM66 °FMostly cloudy.7 mph83%29.95 "HgN/A
7:55 PM66 °FPartly sunny.8 mph83%29.95 "HgN/A
7:25 PM66 °FBroken clouds.7 mph83%29.95 "HgN/A
Weather by CustomWeather, © 2014

See weather overviewHow to use our weather pages